Home   Weather   Dover   Past weeks

Flag for USA Past Weather in Dover, Delaware, USA — Yesterday and Last 2 Weeks

Now
67 °F

Overcast.


Feels Like: 67 °F
Forecast: 62 / 70 °F
Wind: 5 mph from Southwest

Location: Dover Air Force Base

Current Time: Sep 27, 2016 at 2:59:34 AM

Latest Report: Sep 27, 2016 at 1:58 AM


Visibility: 10 mi

Pressure: 29.95 "Hg

Humidity: 100%

Dew Point: 67 °F

Location of DoverLocation

Past Weather in Dover — Graph

°F

Dover Temperature Yesterday

Maximum temperature yesterday: 73 °F (at 12:58 PM)
Minimum temperature yesterday: 53 °F (at 6:58 AM)
Average temperature yesterday: 65 °F

High & Low Weather Summary for the Past Weeks

 TemperatureHumidityPressure
High91 °F (Sep 14, 3:58 PM)100% (Sep 12, 10:58 PM)30.30 "Hg (Sep 12, 10:58 PM)
Low51 °F (Sep 25, 5:58 AM)28% (Sep 20, 2:58 PM)29.95 "Hg (Sep 23, 3:58 PM)
Average70 °F87%30.12 "Hg
* Reported Sep 12 1:58 AM — Sep 27 1:58 AM, Dover, Weather by CustomWeather, © 2016

Note: Actual official high and low records may vary slightly from our data, if they occured in-between our weather recording intervals... More about our weather records

Advertising

Dover Weather History for the Previous 24 Hours

Scroll right to see more
 ConditionsComfort  
Time TempWeatherWind HumidityBarometerVisibility
1:58 AM
Tue, Sep 27
67 °FOvercast.5 mph100%29.95 "Hg10 mi
12:58 AM68 °FOvercast.5 mph100%29.96 "Hg10 mi
11:58 PM
Mon, Sep 26
68 °FLight rain. Partly cloudy.9 mph99%29.97 "Hg10 mi
10:58 PM68 °FOvercast.10 mph91%29.99 "Hg10 mi
9:58 PM68 °FOvercast.8 mph86%30.03 "Hg10 mi
9:50 PM68 °FOvercast.8 mph83%30.02 "Hg10 mi
8:58 PM68 °FOvercast.8 mph79%30.04 "Hg10 mi
7:58 PM69 °FOvercast.5 mph72%30.05 "Hg10 mi
6:58 PM70 °FOvercast.8 mph66%30.04 "Hg10 mi
5:58 PM71 °FOvercast.9 mph67%30.04 "Hg10 mi
4:58 PM72 °FOvercast.8 mph61%30.05 "Hg10 mi
3:58 PM72 °FOvercast.9 mph65%30.06 "Hg10 mi
2:58 PM73 °FPartly sunny.15 mph63%30.08 "Hg10 mi
1:58 PM72 °FMostly cloudy.17 mph63%30.10 "Hg10 mi
12:58 PM73 °FScattered clouds.15 mph62%30.12 "Hg10 mi
11:58 AM72 °FSunny.13 mph66%30.15 "Hg10 mi
10:58 AM69 °FOvercast.12 mph70%30.16 "Hg10 mi
9:58 AM68 °FScattered clouds.14 mph78%30.16 "Hg10 mi
8:58 AM63 °FPassing clouds.5 mph95%30.17 "Hg10 mi
7:58 AM57 °FSunny.5 mph100%30.17 "Hg10 mi
6:58 AM53 °FSunny.3 mph100%30.16 "Hg10 mi
5:58 AM55 °FClear.2 mph100%30.16 "Hg10 mi
4:58 AM54 °FClear.2 mph100%30.16 "Hg10 mi
3:58 AM54 °FClear.2 mph100%30.16 "Hg10 mi
2:58 AM54 °FClear.3 mph100%30.16 "Hg10 mi
Weather by CustomWeather, © 2016

See weather overviewHow to use our weather pages